Sion, Switzerland

08:15 AM CEST am 01. Mai 2017 (GMT +0200)
Sion

Wetter Verlauf für LSGS - April, 2017

Change the Weather History Date:

Freitag, April 21, 2017

  Actual Average Record
Temperature  
mittlereTemperatur 47 °F -  
Max. Temperatur 63 °F - - ()
Min.Temperatur 31 °F - - ()
Degree Days  
Heizgradtage 18    
Moisture  
Taupunkt 22 °F    
Average Humidity 36    
Maximum Humidity 68    
Minimum Humidity 11    
Niederschlag  
Niederschlag 0.00 inch - - ()
Luftdruck in Meereshöhe  
Luftdruck in Meereshöhe 30.37 inch    
Wind  
Windgeschwindigkeit 5 mph ()    
Max. Windgeschwindigkeit 22 mph    
Max Gust Speed -    
Sichtweite 6.9 Meilen    
Ereignisse      
T = Trace of Precipitation, MM = Missing Value Source: Averaged Metar Reports

Daily Weather History Graph

Daily Weather History Graph

Search for Another Location

Airport or City:

Trip Planner

Search our weather history database for the weather conditions in past years. The results will help you decide how hot, cold, wet, or windy it might be!

Date:

Astronomie

Apr. 21, 2017 Aufgang Untergang
Genaue Zeit 06:33 CEST 20:26 CEST
Bürgerliche Dämmerung 06:01 CEST 20:58 CEST
Nautische Dämmerung 05:22 CEST 21:37 CEST
Astronomische Dämmerung 04:39 CEST 22:21 CEST
Mond 04:03 CEST (4/21) 14:30 CEST (4/21)
Länge des sichtbaren Lichts 14h 56m
Tageslänge
13h 52m
Letztes Viertel, 30% of the Moon is Illuminated
Apr 21
Letztes Viertel
Apr 26
Neu
Mai 3
Erstes Viertel
Mai 10
Vollmond
Mai 19
Letztes Viertel

Hourly Weather History & Observations

Zeit (CEST) Temp. Windchill Taupunkt Feuchtigkeit Druck Sichtweite Wind Dir Windgeschwindigkeit Böengeschwindigkeit Precip Ereignisse Wetterzustand
12:00 AM 42 °F - 21 °F 29% 30.44 inch - Nordwest 3.5 mph - -  
12:20 AM 42.8 °F - 21.2 °F 42% 30.39 inch 4.3 mi Ruhig Ruhig - N/A   Unbekannt
12:50 AM 39.2 °F - 23.0 °F 52% 30.39 inch 4.3 mi Ruhig Ruhig - N/A   Unbekannt
1:00 AM 39 °F - 25 °F 44% 30.47 inch - Ruhig Ruhig - -  
1:20 AM 39.2 °F - 23.0 °F 52% 30.42 inch 4.3 mi Wechselnd 1.2 mph - N/A   Unbekannt
1:50 AM 39.2 °F - 23.0 °F 52% 30.42 inch 4.3 mi Wechselnd 2.3 mph - N/A   Unbekannt
2:00 AM 36 °F - 29 °F 68% 30.48 inch 12 mi Süd-Südost 1.2 mph - -  
2:20 AM 37.4 °F - 23.0 °F 56% 30.42 inch 3.7 mi Ost-Südost 2.3 mph - N/A   Unbekannt
2:50 AM 35.6 °F 32.8 °F 21.2 °F 56% 30.39 inch 3.7 mi Ost 3.5 mph - N/A   Unbekannt
3:00 AM 34 °F - 25 °F 58% 30.49 inch - Ost 3.5 mph - -  
3:20 AM 35.6 °F 30.7 °F 21.2 °F 56% 30.39 inch 3.7 mi Ost 5.8 mph - N/A   Unbekannt
3:50 AM 35.6 °F 31.7 °F 23.0 °F 60% 30.39 inch 4.3 mi Ost-Südost 4.6 mph - N/A   Unbekannt
4:00 AM 34 °F - 22 °F 49% 30.48 inch - Ost 3.5 mph - -  
4:20 AM 35.6 °F - 21.2 °F 56% 30.39 inch 3.7 mi Nordost 2.3 mph - N/A   Unbekannt
4:50 AM 35.6 °F - 21.2 °F 56% 30.39 inch 3.7 mi Wechselnd 2.3 mph - N/A   Unbekannt
5:00 AM 33 °F - 26 °F 67% 30.48 inch 12 mi Ost-Südost 2.3 mph - -  
5:20 AM 33.8 °F - 23.0 °F 65% 30.39 inch 3.1 mi Wechselnd 1.2 mph - N/A   Unbekannt
5:50 AM 33.8 °F 30.8 °F 21.2 °F 60% 30.39 inch - Ost 3.5 mph - N/A   Trübung, Dunst
6:00 AM 32 °F - 23 °F 58% 30.50 inch - Ost-Südost 2.3 mph - -  
6:20 AM 32.0 °F - 19.4 °F 60% 30.42 inch - Ost 2.3 mph - N/A   Trübung, Dunst
7:00 AM 31 °F - 21 °F 56% 30.51 inch - Nordost 1.2 mph - -  
7:20 AM 33.8 °F - 21.2 °F 60% 30.42 inch - Ost 1.2 mph - N/A   Heiter
7:50 AM 33.8 °F - 21.2 °F 60% 30.42 inch 5.6 mi Ost 2.3 mph - N/A   Rauch
8:00 AM 35 °F - 22 °F 45% 30.51 inch 16 mi Ost 3.5 mph - -  
8:50 AM 37.4 °F 32.8 °F 17.6 °F 45% 30.42 inch - Ost 5.8 mph - N/A   Heiter
9:00 AM 40 °F - 17 °F 26% 30.49 inch - Ost 5.8 mph - -  
9:20 AM 41.0 °F 36.4 °F 19.4 °F 42% 30.42 inch - Ost 6.9 mph - N/A   Heiter
9:50 AM 42.8 °F 40.1 °F 17.6 °F 36% 30.42 inch - Ost-Nordost 4.6 mph - N/A   Heiter
10:00 AM 45 °F - 16 °F 18% 30.47 inch - Ost-Nordost 3.5 mph - -  
10:20 AM 46.4 °F 45.2 °F 14.0 °F 27% 30.42 inch - Wechselnd 3.5 mph - N/A   Heiter
10:50 AM 46.4 °F 45.2 °F 17.6 °F 32% 30.42 inch - Wechselnd 3.5 mph - N/A   Heiter
11:00 AM 47 °F - 17 °F 18% 30.45 inch 19 mi West 3.5 mph - -  
11:20 AM 48.2 °F - 17.6 °F 30% 30.42 inch - Wechselnd 3.5 mph - N/A   Heiter
11:50 AM 50.0 °F - 17.6 °F 28% 30.39 inch - Wechselnd 3.5 mph - N/A   Heiter
12:00 PM 53 °F - 16 °F 13% 30.41 inch - West-Südwest 4.6 mph - -  
12:20 PM 51.8 °F - 15.8 °F 24% 30.39 inch - Südwest 5.8 mph - N/A   Heiter
12:50 PM 53.6 °F - 19.4 °F 26% 30.36 inch - West-Südwest 5.8 mph - N/A   Heiter
1:00 PM 54 °F - 18 °F 13% 30.37 inch - West-Südwest 8.1 mph - -  
1:20 PM 55.4 °F - 21.2 °F 26% 30.36 inch - West-Südwest 8.1 mph - N/A   Heiter
1:50 PM 57.2 °F - 23.0 °F 27% 30.33 inch - West 12.7 mph - N/A   Heiter
2:00 PM 58 °F - 20 °F 13% 30.33 inch 19 mi West-Südwest 13.8 mph - -  
2:20 PM 59.0 °F - 23.0 °F 25% 30.33 inch - West 12.7 mph - N/A   Heiter
3:00 PM 60 °F - 19 °F 11% 30.30 inch - West-Südwest 16.1 mph - -  
3:20 PM 60.8 °F - 23.0 °F 23% 30.30 inch - West 15.0 mph - N/A   Heiter
3:50 PM 60.8 °F - 23.0 °F 23% 30.30 inch - West 16.1 mph - N/A   Heiter
4:00 PM 63 °F - 21 °F 11% 30.26 inch - West-Südwest 17.3 mph - -  
4:20 PM 62.6 °F - 24.8 °F 24% 30.27 inch - West-Südwest 16.1 mph - N/A   Heiter
4:50 PM 62.6 °F - 23.0 °F 22% 30.27 inch - West 18.4 mph - N/A   Heiter
5:00 PM 63 °F - 22 °F 11% 30.24 inch 28 mi West-Südwest 21.9 mph - -  
5:20 PM 62.6 °F - 23.0 °F 22% 30.27 inch - West-Südwest 18.4 mph - N/A   Heiter
5:50 PM 60.8 °F - 23.0 °F 23% 30.27 inch - West-Südwest 19.6 mph - N/A   Heiter
6:20 PM 60.8 °F - 23.0 °F 23% 30.27 inch - West-Südwest 19.6 mph - N/A   Heiter
6:50 PM 59.0 °F - 23.0 °F 25% 30.27 inch - West 17.3 mph - N/A   Heiter
7:00 PM 60 °F - 22 °F 13% 30.26 inch - West-Südwest 19.6 mph - -  
7:20 PM 59.0 °F - 23.0 °F 25% 30.27 inch - West 15.0 mph - N/A   Heiter
7:50 PM 57.2 °F - 23.0 °F 27% 30.27 inch - West-Nordwest 11.5 mph - N/A   Heiter
8:00 PM 57 °F - 22 °F 15% 30.28 inch 28 mi West 12.7 mph - -  
8:20 PM 55.4 °F - 23.0 °F 29% 30.30 inch 5.0 mi West 10.4 mph - N/A   Unbekannt
8:50 PM 55.4 °F - 23.0 °F 29% 30.30 inch 5.0 mi West 10.4 mph - N/A   Unbekannt
9:00 PM 54 °F - 22 °F 17% 30.31 inch - West-Nordwest 6.9 mph - -  
9:20 PM 55.4 °F - 23.0 °F 29% 30.30 inch 5.0 mi Wechselnd 6.9 mph - N/A   Unbekannt
9:50 PM 51.8 °F - 24.8 °F 35% 30.33 inch 4.3 mi Wechselnd 1.2 mph - N/A   Unbekannt
10:00 PM 47 °F - 29 °F 38% 30.36 inch - Süd 2.3 mph - -  
10:20 PM 50.0 °F - 26.6 °F 40% 30.33 inch 5.0 mi Wechselnd 2.3 mph - N/A   Unbekannt
10:50 PM 48.2 °F - 24.8 °F 40% 30.33 inch 5.0 mi Wechselnd 1.2 mph - N/A   Unbekannt
11:00 PM 45 °F - 29 °F 40% 30.37 inch 16 mi Ost-Südost 2.3 mph - -  
11:20 PM 48.2 °F - 26.6 °F 43% 30.33 inch 4.3 mi Wechselnd 2.3 mph - N/A   Unbekannt
11:50 PM 46.4 °F - 26.6 °F 46% 30.33 inch 4.3 mi Wechselnd 1.2 mph - N/A   Unbekannt